TimeCST,TemperatureF,Dew PointF,Humidity,Sea Level PressureIn,VisibilityMPH,Wind Direction,Wind SpeedMPH,Gust SpeedMPH,PrecipitationIn,Events,Conditions,WindDirDegrees,DateUTC
12:53 AM,24.1,19.9,84,30.26,10.0,Calm,Calm,-,N/A,,Clear,0,2012-12-12 06:53:00
1:53 AM,23.0,19.9,88,30.26,10.0,Calm,Calm,-,N/A,,Clear,0,2012-12-12 07:53:00
2:53 AM,21.0,18.0,88,30.27,10.0,Calm,Calm,-,N/A,,Clear,0,2012-12-12 08:53:00
3:53 AM,21.0,18.0,88,30.27,9.0,Calm,Calm,-,N/A,,Clear,0,2012-12-12 09:53:00
4:53 AM,21.0,18.0,88,30.28,8.0,Calm,Calm,-,N/A,,Clear,0,2012-12-12 10:53:00
5:53 AM,19.9,17.1,89,30.30,8.0,Calm,Calm,-,N/A,,Clear,0,2012-12-12 11:53:00
6:53 AM,19.9,17.1,89,30.32,8.0,Calm,Calm,-,N/A,,Clear,0,2012-12-12 12:53:00
7:53 AM,19.9,18.0,92,30.35,7.0,Calm,Calm,-,N/A,,Clear,0,2012-12-12 13:53:00
8:53 AM,30.9,27.0,85,30.36,10.0,Calm,Calm,-,N/A,,Clear,0,2012-12-12 14:53:00
9:53 AM,36.0,25.0,64,30.38,10.0,Calm,Calm,-,N/A,,Clear,0,2012-12-12 15:53:00
10:53 AM,42.1,25.0,51,30.36,10.0,South,4.6,-,N/A,,Clear,170,2012-12-12 16:53:00
11:53 AM,46.0,23.0,40,30.34,10.0,Calm,Calm,-,N/A,,Clear,0,2012-12-12 17:53:00
12:53 PM,48.9,18.0,29,30.30,10.0,South,5.8,-,N/A,,Clear,170,2012-12-12 18:53:00
1:53 PM,52.0,19.0,27,30.28,10.0,Calm,Calm,-,N/A,,Clear,0,2012-12-12 19:53:00
2:53 PM,53.1,21.9,30,30.27,10.0,SE,5.8,-,N/A,,Clear,140,2012-12-12 20:53:00
3:53 PM,52.0,21.9,31,30.27,10.0,East,4.6,-,N/A,,Clear,100,2012-12-12 21:53:00
4:53 PM,46.9,23.0,39,30.27,10.0,Calm,Calm,-,N/A,,Clear,0,2012-12-12 22:53:00
5:53 PM,41.0,21.9,47,30.28,10.0,Calm,Calm,-,N/A,,Clear,0,2012-12-12 23:53:00
6:53 PM,37.0,21.0,52,30.28,10.0,Calm,Calm,-,N/A,,Clear,0,2012-12-13 00:53:00
7:53 PM,37.9,19.9,48,30.29,10.0,Calm,Calm,-,N/A,,Clear,0,2012-12-13 01:53:00
8:53 PM,37.0,19.9,50,30.30,10.0,Calm,Calm,-,N/A,,Clear,0,2012-12-13 02:53:00
9:53 PM,34.0,21.0,59,30.32,10.0,Calm,Calm,-,N/A,,Clear,0,2012-12-13 03:53:00
10:53 PM,30.0,21.9,72,30.32,10.0,Calm,Calm,-,N/A,,Clear,0,2012-12-13 04:53:00
11:53 PM,28.0,21.9,78,30.32,10.0,Calm,Calm,-,N/A,,Clear,0,2012-12-13 05:53:00